Theta_e
315 315 318 322 327 324 324 325 326 328 328 325 331 331 330 331 328 330 333 334 335 335 339 337 335 333 333 334 333 333 334 338 338 336 334 332 331 332 331 330 330 330 329 330 330 330 329 330 330
314 316 321 324 325 321 321 322 328 326 323 326 325 326 326 329 334 335 334 333 334 337 338 337 331 329 329 332 333 333 336 337 337 335 332 331 330 331 331 329 329 332 331 328 328 328 328 328 328
315 316 323 324 324 321 320 322 326 322 323 324 325 326 327 330 333 334 333 333 334 337 340 337 326 327 328 329 331 331 335 337 336 333 331 330 330 331 330 329 329 331 330 328 328 328 327 327 328
318 320 319 323 324 319 319 320 321 324 319 319 325 326 329 331 333 333 332 333 334 338 340 332 326 328 327 327 329 330 332 336 335 333 331 330 329 330 329 326 328 328 328 328 327 328 328 327 325
316 321 324 323 321 318 316 318 322 323 321 322 323 325 330 332 332 332 332 332 333 337 338 336 327 327 324 323 325 329 330 333 334 333 331 329 329 330 328 327 327 328 326 329 329 326 327 325 325
321 321 323 324 320 318 319 318 320 320 319 322 323 325 330 333 332 333 332 332 334 337 339 336 327 325 325 325 322 327 328 333 334 332 330 328 328 329 329 327 326 328 327 328 327 325 325 324 324
322 323 323 323 319 320 320 318 320 319 320 321 324 324 329 334 332 333 331 333 335 337 340 337 333 329 326 325 324 325 327 330 331 331 327 326 325 326 327 325 325 327 328 330 324 324 324 323 323
319 322 321 320 319 318 319 317 316 318 318 318 324 320 326 333 333 333 332 333 334 336 338 338 336 332 331 328 325 325 326 328 330 329 324 324 324 323 325 325 324 325 325 325 326 324 324 323 322
314 322 322 321 318 318 316 318 314 314 317 319 323 320 326 335 334 333 333 335 335 336 337 338 336 334 332 331 328 326 325 325 326 327 324 323 327 325 325 325 323 324 324 324 324 326 324 323 322
320 321 322 319 318 318 316 318 317 317 317 317 319 318 329 335 335 333 333 334 335 335 336 336 336 335 333 331 330 330 329 330 329 329 327 327 325 324 324 325 324 323 323 323 323 324 323 323 323
317 320 317 315 314 315 317 316 315 317 318 318 318 319 329 335 335 333 333 333 334 334 334 334 335 335 334 332 332 331 330 330 329 329 327 325 324 322 323 324 324 323 322 323 323 321 321 321 321
317 313 314 313 313 313 316 314 315 316 317 314 315 317 329 335 335 333 333 333 333 334 334 334 334 333 334 334 331 332 330 329 328 328 326 324 323 323 323 323 323 323 321 322 322 321 320 319 318
315 313 313 312 311 313 312 314 315 315 314 311 311 317 326 332 333 333 334 333 333 333 333 333 334 333 333 333 333 331 332 329 328 327 325 324 323 323 322 322 322 322 321 321 320 320 319 318 319
312 313 313 312 312 312 314 312 312 312 310 310 312 316 322 329 332 334 334 334 334 335 335 334 334 334 335 332 332 333 332 331 329 327 326 324 323 322 322 322 321 321 320 319 319 319 319 319 318
311 313 312 312 312 313 312 313 313 311 308 310 312 314 316 324 331 333 333 334 334 335 336 336 335 334 333 332 332 331 332 333 331 328 327 325 324 323 321 321 321 320 318 315 316 315 316 317 317
311 313 315 310 312 311 311 316 309 310 310 311 311 312 312 314 323 329 332 333 334 335 335 336 334 334 334 333 333 332 331 331 331 330 328 327 326 325 323 322 320 318 316 315 314 314 314 315 315
312 313 312 309 310 312 311 314 309 310 312 312 313 312 311 311 310 312 322 329 332 333 334 335 335 334 335 334 334 332 332 332 331 330 330 328 328 328 326 325 323 320 318 316 315 314 314 314 315
314 311 311 311 311 312 313 313 312 311 310 314 314 313 313 312 311 309 308 309 320 328 332 333 334 334 334 333 333 332 332 331 331 331 330 329 327 328 325 323 323 324 322 320 318 315 314 314 315
312 310 311 309 311 312 313 313 313 313 312 314 314 313 311 311 308 306 305 305 307 313 325 330 332 334 334 331 332 332 331 331 331 331 331 332 328 326 325 323 322 323 321 321 320 317 315 314 312
309 311 311 311 310 312 312 314 314 312 310 309 309 309 309 310 310 308 308 307 305 307 311 319 326 330 333 332 331 331 331 331 331 331 331 331 330 327 325 324 323 322 321 321 320 319 314 313 314
310 310 311 312 309 308 309 312 310 308 307 308 307 307 308 309 310 310 309 309 310 307 305 310 317 324 328 331 331 330 331 331 330 330 330 330 330 330 327 326 324 323 321 322 321 321 317 315 312
311 309 310 311 312 311 309 310 312 308 310 309 311 311 311 311 310 309 310 309 309 310 309 304 308 316 322 326 328 328 328 329 329 329 329 330 330 329 329 329 328 327 326 324 323 322 321 316 313
310 309 310 310 312 312 312 311 312 307 311 312 312 311 311 310 310 310 308 308 307 308 311 313 310 308 314 321 325 327 327 328 328 328 328 328 329 328 328 328 328 328 327 327 325 323 320 318 315
307 309 309 309 311 313 311 312 311 309 311 312 311 310 310 309 309 308 307 307 307 308 308 309 312 316 318 317 321 324 325 326 327 327 328 328 328 329 328 329 329 328 328 327 326 325 322 320 317
309 312 313 313 314 312 306 309 312 307 308 313 312 311 309 309 310 309 308 307 306 306 307 307 307 308 312 318 321 321 321 322 323 324 324 324 324 324 325 325 325 325 326 325 324 323 322 320 318
311 311 314 318 313 312 306 311 311 307 307 311 310 309 308 309 309 308 307 306 306 305 306 306 306 306 306 307 308 310 315 316 318 319 319 319 319 319 319 319 319 320 321 321 321 322 321 320 318
310 310 308 309 303 313 311 310 308 308 309 310 309 309 309 309 309 308 306 305 305 304 303 304 304 304 305 305 306 306 306 306 306 307 307 307 307 307 307 308 309 310 311 313 315 318 318 318 318
309 308 311 310 318 316 309 310 312 311 312 311 310 310 309 308 308 307 305 304 303 302 301 301 301 302 302 303 303 303 303 303 303 303 304 304 304 305 305 305 306 306 307 308 310 311 312 313 314
308 309 308 310 311 321 313 310 310 312 313 312 311 310 309 309 308 306 304 302 301 301 301 300 300 300 301 301 301 302 302 302 302 301 301 301 301 301 302 302 303 303 304 304 305 306 308 309 310
308 310 310 312 312 308 311 313 306 311 312 312 310 308 308 308 306 305 303 302 301 301 300 299 298 299 300 301 301 301 301 301 300 300 300 300 300 300 300 299 300 300 301 301 301 302 303 304 305
Wind_Speed
9 9 6 3 3 1 4 4 1 5 5 2 3 3 2 5 3 3 7 8 17 17 15 12 11 10 13 14 14 13 13 14 16 14 15 15 15 16 16 15 15 16 16 16 16 16 16 15 15
6 6 1 1 2 3 5 4 7 5 4 7 5 4 2 4 3 7 14 10 19 18 16 13 12 11 14 15 15 14 14 15 15 13 14 14 14 15 15 15 15 16 16 16 16 16 16 16 15
3 4 2 2 1 2 3 7 7 5 6 4 3 1 1 4 4 15 5 20 20 17 15 14 12 12 14 15 16 15 15 15 13 12 13 13 13 14 14 14 15 14 15 15 14 15 14 15 17
2 1 3 3 2 3 1 7 5 10 3 2 0 4 3 3 8 7 16 22 21 16 13 14 13 13 13 13 16 15 15 15 13 12 11 12 13 13 13 13 14 12 12 13 14 16 16 15 16
3 2 3 2 2 2 2 4 9 10 5 4 2 3 3 3 3 10 21 22 20 17 14 13 14 13 13 13 15 15 14 14 13 11 11 11 12 13 13 14 13 12 9 14 14 16 15 13 14
3 1 4 7 3 2 2 7 8 6 4 5 4 5 4 3 8 14 21 21 18 16 15 13 13 13 13 12 13 14 14 15 12 10 10 10 12 12 12 11 13 9 10 11 13 14 12 11 12
5 5 5 3 6 4 5 8 7 6 6 5 3 4 4 7 8 15 20 19 17 15 14 13 12 12 11 11 12 13 13 14 9 8 9 9 11 11 12 10 10 9 9 12 11 13 11 10 10
3 3 5 4 7 4 7 6 1 5 4 2 1 3 4 11 14 17 18 17 16 15 14 12 12 11 10 10 10 11 12 13 11 8 8 9 10 10 12 10 8 9 7 4 6 11 11 10 9
1 4 6 7 7 6 7 6 2 0 5 3 4 1 4 16 18 19 17 16 15 14 13 14 12 11 10 10 10 10 10 11 11 9 7 8 7 8 9 8 9 9 7 6 6 7 10 8 7
3 6 8 4 5 6 10 6 9 6 5 4 5 4 8 16 19 22 22 21 19 17 14 13 13 13 12 10 11 9 9 9 9 9 9 7 7 7 8 9 9 10 8 7 6 7 9 6 4
3 7 5 5 2 4 10 6 5 6 6 6 8 10 12 16 18 21 23 24 23 19 15 14 14 14 13 11 11 9 9 9 9 9 9 8 8 8 7 7 7 6 7 7 5 7 5 4 3
5 2 3 3 3 5 9 8 4 6 3 4 2 6 15 18 20 22 22 22 23 22 20 17 16 16 15 13 13 12 11 11 10 10 10 9 8 8 8 7 7 7 5 5 4 4 5 4 4
2 4 4 4 4 5 7 4 1 6 5 3 2 7 12 15 18 18 18 19 20 21 21 20 18 19 20 17 14 15 13 13 11 11 12 10 9 9 8 8 8 8 7 7 6 6 5 5 5
4 6 6 2 3 3 3 2 2 2 3 3 6 7 9 13 16 15 17 19 20 20 21 20 20 20 19 20 19 17 16 13 12 12 13 14 10 9 9 8 9 8 8 8 8 8 7 7 7
9 6 3 1 1 2 1 5 6 1 1 2 6 5 5 11 14 19 18 20 20 21 20 21 21 22 22 22 22 19 19 15 14 14 16 16 16 13 12 11 10 10 10 11 11 13 12 10 10
5 4 6 2 3 1 2 10 1 3 3 6 5 5 7 8 13 16 17 19 20 21 22 21 20 22 23 23 23 21 19 19 16 16 15 19 19 18 17 16 16 15 15 15 15 16 17 17 16
0 7 6 3 1 1 4 5 1 1 2 3 3 3 3 4 8 11 15 19 20 21 22 22 23 22 24 24 21 23 24 24 21 21 22 17 21 20 20 20 20 20 19 20 19 17 20 18 16
10 7 4 6 4 2 3 12 5 4 6 6 6 5 2 4 5 5 9 13 19 21 22 23 24 24 23 22 24 25 26 28 28 26 26 21 21 23 22 19 20 23 24 24 25 24 22 18 17
9 5 6 2 2 3 7 11 12 7 7 9 8 6 3 6 4 6 5 6 11 16 22 24 24 24 22 24 24 24 26 27 29 29 28 26 20 21 24 22 21 26 27 24 24 26 28 27 21
6 9 4 3 2 3 1 10 11 6 3 4 8 4 2 2 4 6 5 3 2 10 16 20 23 21 22 20 23 22 20 23 26 29 30 29 25 22 22 23 21 27 29 29 28 29 21 27 29
3 8 5 2 3 2 3 6 5 2 2 4 4 2 3 4 5 7 8 9 7 3 6 12 16 18 20 20 16 18 18 17 18 24 27 29 29 30 26 26 24 24 30 33 34 35 33 25 23
6 5 7 9 6 4 2 3 3 1 4 5 4 5 5 6 7 8 9 11 11 9 6 4 10 11 14 16 17 17 17 18 18 19 20 23 26 26 28 29 31 32 33 34 37 37 38 30 25
3 7 6 4 4 1 3 4 2 2 4 4 6 6 8 8 9 10 12 12 12 13 13 12 9 6 8 11 15 14 15 14 14 13 17 20 22 23 24 26 27 30 33 35 36 36 36 36 32
13 10 6 3 2 4 6 5 5 5 5 7 6 8 9 10 10 11 11 13 16 16 16 16 16 15 9 6 7 9 9 9 10 11 12 13 14 17 21 26 27 30 33 34 36 36 37 38 37
4 14 3 3 4 5 2 4 6 5 4 12 13 11 9 8 9 9 11 13 15 17 17 18 19 20 16 13 10 6 3 4 5 7 8 10 12 14 16 19 22 24 28 31 35 35 35 38 39
12 9 6 7 5 4 3 7 3 3 2 10 10 10 9 9 8 9 12 13 14 16 17 18 20 20 18 17 16 13 9 6 2 2 5 6 8 10 14 16 18 21 23 25 26 29 34 36 38
6 8 4 7 2 2 5 4 5 4 9 10 11 12 11 9 9 10 12 13 14 15 16 17 18 20 20 18 17 16 14 12 9 8 7 7 8 10 11 12 14 16 18 22 25 27 28 29 34
5 11 3 1 6 5 5 5 6 13 18 15 14 14 12 9 9 9 11 12 12 13 14 16 19 19 18 18 17 17 15 14 12 11 11 11 11 12 13 14 15 17 18 18 18 21 23 25 31
5 6 2 3 3 5 4 6 6 21 23 21 17 14 13 11 9 9 11 11 12 13 12 14 16 17 18 17 16 16 16 15 14 14 14 15 14 15 15 16 17 19 20 20 20 21 22 24 26
2 7 11 6 7 2 0 4 2 14 18 18 15 12 11 10 9 10 11 12 12 11 10 12 13 16 16 16 16 16 16 17 17 17 18 19 19 19 19 19 19 19 20 21 22 22 23 23 25
Wind_Direction
334 324 306 239 218 231 129 134 45 144 170 102 117 253 22 26 11 39 132 146 150 148 148 146 147 146 136 130 123 124 125 122 114 98 89 89 91 96 94 90 97 93 88 86 86 90 94 99 103
326 318 308 58 253 185 132 147 187 141 103 130 135 158 186 79 67 106 138 157 154 149 149 150 151 141 139 140 138 128 121 124 113 101 96 94 97 102 98 94 98 100 91 86 87 89 93 93 94
317 347 310 5 257 133 148 177 156 122 128 172 166 315 66 95 103 145 137 153 153 151 148 151 148 140 138 144 139 130 125 126 119 102 100 98 104 109 106 104 101 101 91 88 90 93 96 94 96
282 207 112 272 145 97 74 157 149 147 168 188 237 129 114 11 143 153 152 155 153 154 149 150 148 143 139 137 139 137 137 124 121 114 110 106 109 115 113 105 106 104 97 91 98 102 100 94 98
51 219 230 265 148 126 184 148 168 160 146 151 185 116 82 106 147 145 154 159 158 154 153 151 152 150 147 143 141 141 142 136 140 134 118 114 118 123 119 114 115 110 99 102 106 99 93 101 103
159 240 219 220 159 171 181 164 168 178 153 140 166 140 95 118 157 158 160 162 163 158 157 159 159 156 150 145 143 146 144 140 148 140 124 121 122 126 121 115 109 110 118 109 110 103 104 107 111
197 192 227 197 159 164 160 165 183 175 167 158 129 143 113 158 160 165 163 164 166 166 162 161 160 161 154 152 148 148 149 146 151 145 142 137 127 133 136 126 126 108 110 115 112 122 121 121 132
120 185 166 205 179 144 148 166 172 196 153 93 175 155 148 154 151 160 166 169 172 172 174 171 166 162 159 161 161 158 157 156 159 166 147 138 135 137 143 138 124 124 125 131 115 142 149 148 143
105 174 199 186 178 141 153 173 148 13 149 184 164 49 88 146 149 157 170 175 180 184 185 177 178 174 171 167 171 168 167 166 169 171 161 133 138 139 143 156 141 136 137 145 142 141 154 157 156
168 200 196 190 181 157 167 185 157 186 163 190 173 133 135 155 164 169 179 184 188 191 190 186 183 186 181 177 176 174 177 174 175 172 169 161 154 154 152 158 168 146 141 149 161 172 152 143 154
178 195 153 169 187 166 152 167 168 180 195 199 202 175 162 171 181 183 189 192 192 193 195 196 193 192 191 190 186 187 188 187 188 184 181 176 163 163 159 165 166 160 156 169 176 154 169 189 182
166 93 123 132 147 151 157 131 189 218 70 72 168 168 169 182 193 192 198 196 194 193 198 199 201 199 199 197 197 198 199 199 195 196 194 187 179 180 180 179 180 180 183 182 189 183 188 197 202
127 141 104 105 140 116 133 146 155 227 197 175 76 169 187 198 201 202 202 205 200 202 201 202 201 207 209 205 203 204 204 205 203 200 208 201 198 194 191 190 189 193 193 195 196 193 201 213 216
116 121 110 120 112 105 187 155 234 141 83 210 198 189 191 204 206 204 206 207 209 209 207 206 206 206 204 210 216 214 212 209 210 209 215 215 211 211 205 202 201 203 203 206 205 206 211 219 225
126 107 109 114 94 68 328 231 224 179 204 173 197 200 198 206 203 215 214 213 212 215 212 211 210 210 212 215 221 221 225 216 216 220 223 224 223 221 216 214 214 214 217 221 217 221 221 224 231
107 129 180 147 179 84 220 251 178 341 245 220 194 196 218 216 218 221 223 223 220 218 216 216 214 212 214 216 220 223 226 231 226 224 224 227 228 232 232 235 237 234 234 228 228 231 235 239 239
135 194 200 179 182 156 213 258 82 277 354 179 181 173 212 237 237 231 230 229 226 224 221 220 219 218 216 216 217 226 230 235 235 239 237 231 232 234 235 237 239 237 236 236 234 234 237 243 243
174 185 188 199 164 179 216 254 237 216 287 268 269 284 277 262 263 257 243 238 232 227 224 224 222 224 222 218 222 229 234 240 242 243 245 235 230 230 230 232 235 237 236 240 240 239 241 238 242
155 136 165 149 89 219 230 264 266 282 273 265 271 287 297 293 324 299 262 237 226 225 225 223 222 222 218 216 217 222 225 230 239 242 244 243 235 232 233 235 237 239 236 236 239 239 242 248 248
126 160 156 110 67 221 228 265 267 285 260 310 308 303 341 341 43 38 46 56 226 223 225 222 223 221 218 215 221 224 231 236 239 246 248 248 240 239 237 237 240 244 244 241 242 240 235 246 243
154 163 171 144 133 87 289 254 239 123 89 66 47 61 61 62 58 54 53 52 54 57 222 219 222 219 219 222 225 228 231 236 241 238 246 253 253 252 245 245 243 248 251 250 250 250 240 238 241
189 177 140 134 170 229 350 271 206 127 100 68 60 89 83 81 86 70 62 54 49 47 65 168 204 209 215 217 221 220 227 238 245 248 253 257 260 259 259 259 259 257 260 260 261 259 255 242 232
160 136 124 122 113 184 194 263 200 154 162 100 90 93 88 82 82 78 70 60 56 56 62 74 94 150 193 203 212 226 234 245 254 255 257 263 266 267 270 270 266 264 263 265 262 260 253 248 240
141 107 72 72 121 234 198 234 223 188 170 135 125 111 106 100 92 79 70 69 64 64 67 69 75 73 83 131 184 213 233 246 259 266 269 266 267 263 271 271 271 272 268 266 267 267 260 257 249
187 154 132 185 197 236 82 221 260 155 137 153 145 133 119 112 101 90 76 69 65 63 67 73 73 70 76 86 97 111 170 229 254 272 282 286 287 282 277 273 270 269 269 269 267 266 265 260 255
185 187 169 182 197 166 91 227 242 205 150 143 140 136 136 122 106 91 87 82 76 74 74 74 76 74 74 79 79 80 86 86 66 312 296 298 294 289 284 279 277 275 275 274 278 275 269 265 260
178 210 95 106 42 174 193 237 218 168 166 166 159 158 145 130 117 105 96 91 86 79 76 78 77 77 74 75 75 72 70 66 54 38 20 359 342 327 320 311 301 293 287 281 273 268 270 273 268
210 141 134 146 163 218 201 256 210 178 181 177 170 164 149 136 126 114 105 101 92 84 78 78 78 77 76 72 70 68 63 57 50 39 24 9 354 342 332 323 313 305 300 293 285 279 276 269 267
146 186 183 165 207 190 180 235 220 187 181 174 170 163 156 152 138 124 113 102 94 85 77 78 75 72 68 65 61 59 56 51 45 35 25 13 5 358 349 338 327 319 311 305 298 290 285 279 275
309 211 188 195 198 230 234 242 316 192 171 165 165 161 154 148 141 128 116 104 94 91 83 74 71 67 65 61 55 49 43 37 30 23 16 9 2 0 355 349 342 334 325 316 306 300 294 288 282